"Pseudo-MPEC" for 828D002

Created 2024 May 17 3:22:01 UT using Find_Orb

Click here for an explanation of pseudo-MPECs

 
 Astrometry: 
     828D002 KB2024 05 12v-/d)4%0V9Astrometry`4*redacted;s9H$9LR_jj?]G6$yf2b+K19
     828D002*KB2024 05 12ovd%-#?Ab7clickn!rpYeB1KgVj$W[)V!;s,0IJjVNcRj!kMqJ8mK19
     828D002 KB2024 05 125cZE._#iBhere3D],QGV!kf)UM0?]jBu]29r1GW4jyH46.?7du)QK19
     828D002 KB2024 05 12X8I,Hh$_X!4pforg'hx(y3rR5aBCZYb/explanation9hTbNV+RoK19

Station data:
(K19) PASTIS Observatory, Banon  (N43.999459 E5.647310)  France.  Observer C.
   Demeautis. 0.16-m f/3.3 reflector + CCD.

Orbital elements:  828D002
   Perihelion 2024 Jul 20.30179 +/- 72.5 TT =  7:14:34 (JD 2460511.80179)
Epoch 2024 May 12.0 TT = JDT 2460442.5   Earth MOID: 0.0387      AutoNEOCP
M 245.22479697 +/- 100              (J2000 ecliptic)
n   1.65616502 +/- 0.816            Peri.  340.97487 +/- 60
a   0.70751172 +/- 0.232            Node    53.88327 +/- 70
e   0.7301036 +/- 0.217             Incl.   52.53007 +/- 53
P   0.60/217.37d           H 22.84  G  0.15   U 12.6  SR
q 0.19095482 +/- 0.321    Q 1.22406863 +/- 11.7
From 4 observations 2024 May 12 (10.7 min); mean residual 0".48
Residuals in arcseconds: 
240512 K19  .29+  .02+    240512 K19  1.2-  .10-    
240512 K19  .29+  .02+    240512 K19  .58+  .05+    

Ephemerides (geocentric):
Date (UTC) HH   RA             Dec           delta  r     elong  mag " sig PA
---- --------  ------------   ------------  ------ ------ -----  --- --------
2024 05 17 03  13 08 26.493   +00 20 43.98  .08464 1.0764 138.8 19.2  46d  95
2024 05 17 04  13 06 47.078   +00 17 11.27  .08470 1.0761 138.4 19.2  46d  95
2024 05 17 05  13 05 07.803   +00 13 38.72  .08475 1.0758 138.0 19.2  46d  95
2024 05 17 06  13 03 28.678   +00 10 06.36  .08482 1.0755 137.7 19.2  46d  95
2024 05 17 07  13 01 49.713   +00 06 34.22  .08488 1.0752 137.3 19.2  46d  95
2024 05 17 08  13 00 10.918   +00 03 02.34  .08495 1.0750 136.9 19.2  46d  95
2024 05 17 09  12 58 32.303   -00 00 29.25  .08503 1.0747 136.6 19.2  46d  95
2024 05 17 10  12 56 53.878   -00 04 00.52  .08511 1.0744 136.2 19.2  46d  95
2024 05 17 11  12 55 15.652   -00 07 31.44  .08520 1.0741 135.8 19.3  46d  95
2024 05 17 12  12 53 37.635   -00 11 01.96  .08529 1.0738 135.4 19.3  46d  95
2024 05 17 13  12 51 59.836   -00 14 32.07  .08538 1.0735 135.1 19.3  46d  95
2024 05 17 14  12 50 22.265   -00 18 01.73  .08548 1.0732 134.7 19.3  46d  95
2024 05 17 15  12 48 44.929   -00 21 30.90  .08558 1.0729 134.3 19.3  46d  95
2024 05 17 16  12 47 07.840   -00 24 59.57  .08569 1.0726 133.9 19.3  46d  95
2024 05 17 17  12 45 31.004   -00 28 27.69  .08580 1.0724 133.6 19.3  46d  95
2024 05 17 18  12 43 54.432   -00 31 55.24  .08591 1.0721 133.2 19.3  46d  95
2024 05 17 19  12 42 18.131   -00 35 22.19  .08603 1.0718 132.8 19.4  46d  95
2024 05 17 20  12 40 42.110   -00 38 48.52  .08616 1.0715 132.5 19.4  47d  95
2024 05 17 21  12 39 06.377   -00 42 14.19  .08629 1.0712 132.1 19.4  47d  95
2024 05 17 22  12 37 30.939   -00 45 39.17  .08642 1.0709 131.7 19.4  47d  95
2024 05 17 23  12 35 55.806   -00 49 03.45  .08656 1.0706 131.3 19.4  47d  95
2024 05 18 00  12 34 20.985   -00 52 26.99  .08670 1.0703 131.0 19.4  47d  95
2024 05 18 01  12 32 46.482   -00 55 49.77  .08684 1.0700 130.6 19.4  47d  95
2024 05 18 02  12 31 12.306   -00 59 11.76  .08699 1.0697 130.2 19.4  47d  95
2024 05 18 03  12 29 38.464   -01 02 32.94  .08715 1.0694 129.8 19.5  47d  95
2024 05 18 04  12 28 04.963   -01 05 53.29  .08731 1.0691 129.5 19.5  47d  95
2024 05 18 05  12 26 31.809   -01 09 12.78  .08747 1.0688 129.1 19.5  47d  95
2024 05 18 06  12 24 59.009   -01 12 31.40  .08764 1.0685 128.7 19.5  47d  95
2024 05 18 07  12 23 26.570   -01 15 49.11  .08781 1.0683 128.4 19.5  47d  95
2024 05 18 08  12 21 54.498   -01 19 05.90  .08798 1.0680 128.0 19.5  47d  95
2024 05 18 09  12 20 22.798   -01 22 21.75  .08816 1.0677 127.6 19.5  47d  95
2024 05 18 10  12 18 51.478   -01 25 36.63  .08834 1.0674 127.3 19.5  47d  95
2024 05 18 11  12 17 20.542   -01 28 50.54  .08853 1.0671 126.9 19.6  47d  95
2024 05 18 12  12 15 49.997   -01 32 03.45  .08872 1.0668 126.5 19.6  47d  95
2024 05 18 13  12 14 19.847   -01 35 15.34  .08891 1.0665 126.2 19.6  47d  95
2024 05 18 14  12 12 50.098   -01 38 26.19  .08911 1.0662 125.8 19.6  47d  95
2024 05 18 15  12 11 20.755   -01 41 35.99  .08931 1.0659 125.5 19.6  47d  95
2024 05 18 16  12 09 51.822   -01 44 44.73  .08952 1.0656 125.1 19.6  47d  95
2024 05 18 17  12 08 23.304   -01 47 52.39  .08973 1.0653 124.7 19.6  47d  95
2024 05 18 18  12 06 55.206   -01 50 58.95  .08994 1.0650 124.4 19.7  47d  95
2024 05 18 19  12 05 27.531   -01 54 04.40  .09016 1.0647 124.0 19.7  47d  95
2024 05 18 20  12 04 00.285   -01 57 08.73  .09038 1.0644 123.7 19.7  47d  95
2024 05 18 21  12 02 33.470   -02 00 11.92  .09060 1.0641 123.3 19.7  47d  95
2024 05 18 22  12 01 07.091   -02 03 13.97  .09083 1.0638 123.0 19.7  47d  95
2024 05 18 23  11 59 41.151   -02 06 14.85  .09106 1.0635 122.6 19.7  47d  95
2024 05 19 00  11 58 15.654   -02 09 14.57  .09130 1.0632 122.2 19.7  47d  95
2024 05 19 01  11 56 50.602   -02 12 13.11  .09154 1.0629 121.9 19.8  47d  95
2024 05 19 02  11 55 25.999   -02 15 10.46  .09178 1.0626 121.6 19.8  47d  95